Home   Weather   Louisville   Past weeks

Flag for USA Past Weather in Louisville, Kentucky, USA — Yesterday and Last 2 Weeks

Now
42 °F

Overcast.


Feels Like: 37 °F
Forecast: 40 / 48 °F
Wind: 8 mph from West

Location: Standiford Field

Current Time: Jan 18, 2017 at 9:06:26 am

Latest Report: Jan 18, 2017 at 7:56 am


Visibility: 10 mi

Pressure: 30.21 "Hg

Humidity: 79%

Dew Point: 36 °F

Location of LouisvilleLocation

Past Weather in Louisville — Graph

°F

Louisville Temperature Yesterday

Maximum temperature yesterday: 64 °F (at 11:23 am)
Minimum temperature yesterday: 45 °F (at 10:56 pm)
Average temperature yesterday: 57 °F

High & Low Weather Summary for the Past Weeks

 TemperatureHumidityPressure
High70 °F (Jan 12, 2:56 pm)100% (Jan 11, 12:02 pm)30.81 "Hg (Jan 11, 12:02 pm)
Low9 °F (Jan 7, 5:56 am)32% (Jan 9, 11:56 pm)29.67 "Hg (Jan 3, 2:56 pm)
Average39 °F73%30.23 "Hg
* Reported Jan 3 7:18 am — Jan 18 7:56 am, Louisville, Weather by CustomWeather, © 2017

Note: Actual official high and low records may vary slightly from our data, if they occured in-between our weather recording intervals... More about our weather records

Advertising

Louisville Weather History for the Previous 24 Hours

Scroll right to see more
 ConditionsComfort  
Time TempWeatherWind HumidityBarometerVisibility
7:56 am
Wed, Jan 18
42 °FOvercast.8 mph79%30.21 "Hg10 mi
6:56 am42 °FOvercast.8 mph79%30.19 "Hg10 mi
6:30 am43 °FOvercast.12 mph76%30.18 "Hg10 mi
5:56 am43 °FDrizzle. Overcast.8 mph79%30.17 "Hg10 mi
5:14 am43 °FOvercast.9 mph76%30.15 "Hg10 mi
4:56 am43 °FOvercast.9 mph76%30.15 "Hg5 mi
3:56 am44 °FOvercast.13 mph76%30.14 "Hg10 mi
2:56 am44 °FDrizzle. Overcast.12 mph79%30.13 "Hg10 mi
1:56 am45 °FOvercast.13 mph76%30.11 "Hg10 mi
12:56 am45 °FOvercast.8 mph80%30.11 "Hg10 mi
11:56 pm
Tue, Jan 17
45 °FOvercast.9 mph80%30.11 "Hg8 mi
10:56 pm45 °FOvercast.13 mph76%30.11 "Hg10 mi
9:56 pm46 °FDrizzle. Overcast.15 mph79%30.10 "Hg9 mi
8:56 pm48 °FOvercast.15 mph74%30.08 "Hg10 mi
7:56 pm49 °FMostly cloudy.13 mph74%30.07 "Hg10 mi
6:56 pm50 °FOvercast.16 mph71%30.06 "Hg10 mi
5:56 pm51 °FPartly cloudy.13 mph74%30.03 "Hg10 mi
4:56 pm54 °FCloudy.17 mph67%29.99 "Hg10 mi
3:56 pm55 °FCloudy.21 mph69%29.96 "Hg10 mi
2:56 pm58 °FMostly cloudy.21 mph67%29.93 "Hg10 mi
1:56 pm61 °FMostly cloudy.18 mph58%29.93 "Hg10 mi
12:56 pm63 °FCloudy.18 mph63%29.93 "Hg10 mi
11:56 am63 °FBroken clouds.18 mph68%29.94 "Hg10 mi
11:23 am64 °FBroken clouds.15 mph70%29.94 "Hg10 mi
10:56 am63 °FPartly sunny.17 mph75%29.94 "Hg10 mi
9:56 am63 °FOvercast.9 mph81%29.93 "Hg10 mi
Weather by CustomWeather, © 2017

See weather overviewHow to use our weather pages